Погода в Ко-Ланта-Яй

Таиланд     7°33′18″N   99°03′52″E
темп.,
°C
ветер,
м/с
пор.,
м/с
влажн.,
%
обл.,
%
осадки,
мм/ч
давл.,
гПа
погр.,
м
5 декабря, вс
вс501:00+25ссв788230 0.0 1012490
04:00+25ссв678327 0.0 1011403
07:00+25св788013 0.0 1012505
10:00+26св687526 0.0 1014683
13:00+28всв576599 0.0 10111199
16:00+29всв666995 0.0 1009917
19:00+27всв897498 0.1 1011807
22:00+26св7107881 0.0 1013734
6 декабря, пн
пн601:00+26св71075100 0.0 1012731
04:00+25св71080100 0.0 1011738
07:00+25св811795 0.0 1012751
10:00+27всв9107098 0.0 1013943
13:00+28всв7866100 0.0 10101219
16:00+29всв8964100 0.0 10081104
19:00+27всв101171100 0.0 1010774
22:00+26всв101176100 0.0 1012650
7 декабря, вт
вт701:00+26св81078100 0.0 1011694
04:00+26св71180100 0.0 1010719
07:00+26св8118196 0.0 1012714
10:00+26св79765 0.0 1013751
13:00+29всв577040 0.0 1011919
16:00+29всв697091 0.1 1009823
19:00+28всв10117491 0.2 1011727
22:00+27всв912795 0.0 1012744
8 декабря, ср
ср801:00+26св8117998 0.0 1011743
04:00+26св8118183 0.0 1011771
07:00+26св7108075 0.0 1012714
10:00+27св7872100 0.0 1013859
13:00+29всв576836 0.0 1011872
16:00+29св7966100 0.0 1009465
19:00+28всв9107298 0.0 1011747
22:00+27всв91175100 0.0 1012709
9 декабря, чт
чт901:00+26всв91178100 0.0 1012735
04:00+26св7117828 0.0 1011752
07:00+25св71080100 0.0 1012626
10:00+26св8107799 0.0 1013789
13:00+29всв586918 0.0 1011588
16:00+29всв8107042 0.1 1009712
19:00+28всв10127349 0.4 1010754
22:00+27всв101276100 0.0 1013765